Time,TemperatureF,DewpointF,PressureIn,WindDirection,WindDirectionDegrees,WindSpeedMPH,WindSpeedGustMPH,Humidity,HourlyPrecipIn,Conditions,Clouds,dailyrainin,SoftwareType,DateUTC
2013-02-26 00:00:00,21.7,19.0,30.21,NNW,338,2.2,2.7,89,0.00,,OVC,0.00,VWS V14.01,2013-02-26 05:00:00,
2013-02-26 00:05:00,21.9,19.2,30.18,NNW,338,1.3,2.2,89,0.00,,OVC,0.00,VWS V14.01,2013-02-26 05:05:00,
2013-02-26 00:10:00,22.5,20.0,30.18,NNW,338,2.9,2.9,90,0.00,,OVC,0.00,VWS V14.01,2013-02-26 05:10:00,
2013-02-26 00:15:00,23.5,21.3,30.18,NNW,338,2.5,3.6,91,0.00,,OVC,0.00,VWS V14.01,2013-02-26 05:15:00,
2013-02-26 00:20:00,23.9,21.7,30.21,NNW,338,3.8,4.3,91,0.00,,OVC,0.00,VWS V14.01,2013-02-26 05:20:00,
2013-02-26 00:25:00,24.1,22.1,30.21,NNW,338,3.1,3.6,92,0.00,,OVC,0.00,VWS V14.01,2013-02-26 05:25:00,
2013-02-26 00:30:00,24.3,22.0,30.21,NNW,338,2.0,2.7,91,0.00,,OVC,0.00,VWS V14.01,2013-02-26 05:30:00,
2013-02-26 00:35:00,24.4,22.2,30.21,NNW,338,3.1,3.8,91,0.00,,OVC,0.00,VWS V14.01,2013-02-26 05:35:00,
2013-02-26 00:40:00,24.4,21.9,30.21,NNW,338,3.6,3.6,90,0.00,,OVC,0.00,VWS V14.01,2013-02-26 05:40:00,
2013-02-26 00:45:00,24.4,21.9,30.21,NNW,338,1.3,2.7,90,0.00,,OVC,0.00,VWS V14.01,2013-02-26 05:45:00,
2013-02-26 00:51:00,24.4,21.7,30.21,NNW,338,0.0,1.3,89,0.00,,OVC,0.00,VWS V14.01,2013-02-26 05:51:00,
2013-02-26 00:56:00,24.4,21.4,30.21,NNW,338,2.7,2.7,88,0.00,,OVC,0.00,VWS V14.01,2013-02-26 05:56:00,
2013-02-26 01:00:00,24.4,21.4,30.21,NNW,338,2.2,2.7,88,0.00,,OVC,0.00,VWS V14.01,2013-02-26 06:00:00,
2013-02-26 01:01:00,24.3,21.2,30.21,NNW,338,1.6,2.7,88,0.00,,OVC,0.00,VWS V14.01,2013-02-26 06:01:00,
2013-02-26 01:06:00,24.4,21.1,30.24,NNW,338,1.6,2.9,87,0.00,,OVC,0.00,VWS V14.01,2013-02-26 06:06:00,
2013-02-26 01:11:00,24.4,21.1,30.24,NNW,338,1.6,1.6,87,0.00,,OVC,0.00,VWS V14.01,2013-02-26 06:11:00,
2013-02-26 01:16:00,24.4,21.1,30.24,NNW,338,2.0,2.7,87,0.00,,OVC,0.00,VWS V14.01,2013-02-26 06:16:00,
2013-02-26 01:20:00,24.6,21.3,30.24,NNW,338,1.3,2.2,87,0.00,,OVC,0.00,VWS V14.01,2013-02-26 06:20:00,
2013-02-26 01:25:00,24.6,21.0,30.24,NNW,338,2.2,3.1,86,0.00,,OVC,0.00,VWS V14.01,2013-02-26 06:25:00,
2013-02-26 01:30:00,24.8,21.2,30.24,NNW,338,3.4,3.4,86,0.00,,OVC,0.00,VWS V14.01,2013-02-26 06:30:00,
2013-02-26 01:35:00,24.8,21.2,30.24,NNW,338,2.5,2.5,86,0.00,,OVC,0.00,VWS V14.01,2013-02-26 06:35:00,
2013-02-26 01:40:00,24.8,20.9,30.24,NNW,338,1.3,2.2,85,0.00,,OVC,0.00,VWS V14.01,2013-02-26 06:40:00,
2013-02-26 01:45:00,24.6,20.5,30.24,NNW,338,2.5,2.7,84,0.00,,OVC,0.00,VWS V14.01,2013-02-26 06:45:00,
2013-02-26 01:50:00,24.3,20.1,30.24,NNW,338,1.6,2.2,84,0.00,,OVC,0.00,VWS V14.01,2013-02-26 06:50:00,
2013-02-26 01:55:00,23.9,19.8,30.24,NNW,338,1.6,2.2,84,0.00,,OVC,0.00,VWS V14.01,2013-02-26 06:55:00,
2013-02-26 02:00:00,23.9,19.8,30.24,NNW,338,1.6,2.2,84,0.00,,OVC,0.00,VWS V14.01,2013-02-26 07:00:00,
2013-02-26 02:05:00,23.9,19.8,30.24,NNW,338,1.1,2.0,84,0.00,,OVC,0.00,VWS V14.01,2013-02-26 07:05:00,
2013-02-26 02:10:00,23.7,19.9,30.24,NNW,338,2.2,2.5,85,0.00,,OVC,0.00,VWS V14.01,2013-02-26 07:10:00,
2013-02-26 02:15:00,24.1,20.2,30.24,NNW,338,1.1,2.0,85,0.00,,OVC,0.00,VWS V14.01,2013-02-26 07:15:00,
2013-02-26 02:20:00,24.4,20.9,30.24,NNW,338,2.7,2.9,86,0.00,,OVC,0.00,VWS V14.01,2013-02-26 07:20:00,
2013-02-26 02:25:00,24.4,20.9,30.24,NNW,338,1.6,2.7,86,0.00,,OVC,0.00,VWS V14.01,2013-02-26 07:25:00,
2013-02-26 02:30:00,24.8,21.2,30.24,NNW,338,3.1,3.1,86,0.00,,OVC,0.00,VWS V14.01,2013-02-26 07:30:00,
2013-02-26 02:35:00,24.8,21.2,30.24,NNW,338,1.6,2.0,86,0.00,,OVC,0.00,VWS V14.01,2013-02-26 07:35:00,
2013-02-26 02:40:00,24.8,20.9,30.24,NNW,338,2.0,2.5,85,0.00,,OVC,0.00,VWS V14.01,2013-02-26 07:40:00,
2013-02-26 02:45:00,24.4,20.6,30.24,NNW,338,2.7,2.9,85,0.00,,OVC,0.00,VWS V14.01,2013-02-26 07:45:00,
2013-02-26 02:50:00,24.4,20.6,30.24,NNW,338,2.0,2.0,85,0.00,,OVC,0.00,VWS V14.01,2013-02-26 07:50:00,
2013-02-26 02:55:00,24.4,20.6,30.24,NNW,338,2.5,2.7,85,0.00,,OVC,0.00,VWS V14.01,2013-02-26 07:55:00,
2013-02-26 03:00:00,24.6,20.8,30.24,NNW,338,0.0,0.0,85,0.00,,OVC,0.00,VWS V14.01,2013-02-26 08:00:00,
2013-02-26 03:05:00,24.4,20.6,30.24,NNW,338,1.6,2.2,85,0.00,,OVC,0.00,VWS V14.01,2013-02-26 08:05:00,
2013-02-26 03:10:00,24.1,20.0,30.24,NNW,338,1.3,2.7,84,0.00,,OVC,0.00,VWS V14.01,2013-02-26 08:10:00,
2013-02-26 03:15:00,24.3,20.4,30.24,NNW,338,0.0,0.9,85,0.00,,OVC,0.00,VWS V14.01,2013-02-26 08:15:00,
2013-02-26 03:20:00,24.3,20.4,30.24,NNW,338,1.1,2.0,85,0.00,,OVC,0.00,VWS V14.01,2013-02-26 08:20:00,
2013-02-26 03:25:00,24.3,20.4,30.24,NNW,338,2.2,2.5,85,0.00,,OVC,0.00,VWS V14.01,2013-02-26 08:25:00,
2013-02-26 03:30:00,24.1,20.2,30.24,NNW,338,1.3,2.0,85,0.00,,OVC,0.00,VWS V14.01,2013-02-26 08:30:00,
2013-02-26 03:35:00,24.1,20.2,30.24,NNW,338,2.5,2.5,85,0.00,,OVC,0.00,VWS V14.01,2013-02-26 08:35:00,
2013-02-26 03:40:00,23.9,20.1,30.24,NNW,338,1.6,1.6,85,0.00,,OVC,0.00,VWS V14.01,2013-02-26 08:40:00,
2013-02-26 03:45:00,23.7,19.9,30.24,NNW,338,1.1,2.2,85,0.00,,OVC,0.00,VWS V14.01,2013-02-26 08:45:00,
2013-02-26 03:50:00,23.7,19.9,30.24,NNW,338,1.1,2.5,85,0.00,,OVC,0.00,VWS V14.01,2013-02-26 08:50:00,
2013-02-26 03:55:00,23.7,19.9,30.24,NNW,338,0.9,1.6,85,0.00,,OVC,0.00,VWS V14.01,2013-02-26 08:55:00,
2013-02-26 04:00:00,23.5,19.7,30.24,NNW,338,1.3,1.3,85,0.00,,OVC,0.00,VWS V14.01,2013-02-26 09:00:00,
2013-02-26 04:05:00,23.4,19.5,30.24,NNW,338,2.5,2.5,85,0.00,,OVC,0.00,VWS V14.01,2013-02-26 09:05:00,
2013-02-26 04:11:00,23.4,19.5,30.24,NNW,338,1.1,1.6,85,0.00,,OVC,0.00,VWS V14.01,2013-02-26 09:11:00,
2013-02-26 04:16:00,23.4,19.5,30.24,NNW,338,2.7,2.7,85,0.00,,OVC,0.00,VWS V14.01,2013-02-26 09:16:00,
2013-02-26 04:21:00,23.4,19.8,30.27,NNW,338,1.3,2.0,86,0.00,,OVC,0.00,VWS V14.01,2013-02-26 09:21:00,
2013-02-26 04:26:00,23.4,19.8,30.27,NNW,338,1.3,1.3,86,0.00,,OVC,0.00,VWS V14.01,2013-02-26 09:26:00,
2013-02-26 04:30:00,23.4,19.8,30.27,NNW,338,1.6,2.2,86,0.00,,OVC,0.00,VWS V14.01,2013-02-26 09:30:00,
2013-02-26 04:31:00,23.5,20.2,30.27,NNW,338,2.0,2.2,87,0.00,,OVC,0.00,VWS V14.01,2013-02-26 09:31:00,
2013-02-26 04:36:00,23.5,20.2,30.27,NNW,338,2.0,2.0,87,0.00,,OVC,0.00,VWS V14.01,2013-02-26 09:36:00,
2013-02-26 04:40:00,23.5,20.5,30.27,NNW,338,1.6,2.2,88,0.00,,OVC,0.00,VWS V14.01,2013-02-26 09:40:00,
2013-02-26 04:46:00,23.7,20.7,30.27,NNW,338,2.0,2.2,88,0.00,,OVC,0.00,VWS V14.01,2013-02-26 09:46:00,
2013-02-26 04:51:00,23.7,21.0,30.27,NNW,338,1.3,2.5,89,0.00,,OVC,0.00,VWS V14.01,2013-02-26 09:51:00,
2013-02-26 04:56:00,23.5,20.5,30.27,NNW,338,0.9,1.1,88,0.00,,OVC,0.00,VWS V14.01,2013-02-26 09:56:00,
2013-02-26 05:00:00,23.5,20.5,30.27,NNW,338,1.6,1.6,88,0.00,,OVC,0.00,VWS V14.01,2013-02-26 10:00:00,
2013-02-26 05:01:00,23.7,21.0,30.27,NNW,338,1.3,2.0,89,0.00,,OVC,0.00,VWS V14.01,2013-02-26 10:01:00,
2013-02-26 05:06:00,23.7,20.7,30.27,NNW,338,1.6,2.0,88,0.00,,OVC,0.00,VWS V14.01,2013-02-26 10:06:00,
2013-02-26 05:11:00,23.7,21.0,30.27,NNW,338,2.2,2.2,89,0.00,,OVC,0.00,VWS V14.01,2013-02-26 10:11:00,
2013-02-26 05:16:00,23.9,21.1,30.27,NNW,338,2.0,2.5,89,0.00,,OVC,0.00,VWS V14.01,2013-02-26 10:16:00,
2013-02-26 05:21:00,23.9,21.1,30.27,NNW,338,1.6,2.2,89,0.00,,OVC,0.00,VWS V14.01,2013-02-26 10:21:00,
2013-02-26 05:26:00,23.9,21.1,30.27,NNW,338,2.7,2.7,89,0.00,,OVC,0.00,VWS V14.01,2013-02-26 10:26:00,
2013-02-26 05:30:00,23.9,21.1,30.27,NNW,338,2.0,2.7,89,0.00,,OVC,0.00,VWS V14.01,2013-02-26 10:30:00,
2013-02-26 05:31:00,23.9,21.1,30.27,NNW,338,1.1,1.6,89,0.00,,OVC,0.00,VWS V14.01,2013-02-26 10:31:00,
2013-02-26 05:36:00,23.9,21.1,30.27,NNW,338,1.3,1.6,89,0.00,,OVC,0.00,VWS V14.01,2013-02-26 10:36:00,
2013-02-26 05:41:00,23.9,21.1,30.27,NNW,338,2.5,2.7,89,0.00,,OVC,0.00,VWS V14.01,2013-02-26 10:41:00,
2013-02-26 05:46:00,23.9,21.1,30.27,NNW,338,2.5,2.9,89,0.00,,OVC,0.00,VWS V14.01,2013-02-26 10:46:00,
2013-02-26 05:51:00,24.1,21.6,30.27,NNW,338,0.0,0.0,90,0.00,,OVC,0.00,VWS V14.01,2013-02-26 10:51:00,
2013-02-26 05:56:00,24.3,21.8,30.27,NNW,338,0.0,0.0,90,0.00,,OVC,0.00,VWS V14.01,2013-02-26 10:56:00,
2013-02-26 06:00:00,24.3,21.8,30.27,NNW,338,0.0,0.0,90,0.00,,OVC,0.00,VWS V14.01,2013-02-26 11:00:00,
2013-02-26 06:01:00,24.4,21.9,30.27,NNW,338,1.1,1.3,90,0.00,,OVC,0.00,VWS V14.01,2013-02-26 11:01:00,
2013-02-26 06:06:00,24.3,21.5,30.24,NNW,338,0.0,0.0,89,0.00,,OVC,0.00,VWS V14.01,2013-02-26 11:06:00,
2013-02-26 06:11:00,24.3,21.5,30.24,NNW,338,1.3,1.6,89,0.00,,OVC,0.00,VWS V14.01,2013-02-26 11:11:00,
2013-02-26 06:16:00,24.4,21.7,30.24,NNW,338,2.0,2.5,89,0.00,,OVC,0.00,VWS V14.01,2013-02-26 11:16:00,
2013-02-26 06:21:00,24.4,21.7,30.27,NNW,338,1.1,1.3,89,0.00,,OVC,0.00,VWS V14.01,2013-02-26 11:21:00,
2013-02-26 06:26:00,24.4,21.7,30.27,NNW,338,2.5,2.5,89,0.00,,OVC,0.00,VWS V14.01,2013-02-26 11:26:00,
2013-02-26 06:30:00,24.4,21.7,30.27,NNW,338,2.5,2.5,89,0.00,,OVC,0.00,VWS V14.01,2013-02-26 11:30:00,
2013-02-26 06:31:00,24.4,21.7,30.27,NNW,338,2.2,2.9,89,0.00,,OVC,0.00,VWS V14.01,2013-02-26 11:31:00,
2013-02-26 06:36:00,24.6,21.9,30.27,NNW,338,2.7,2.7,89,0.00,,OVC,0.00,VWS V14.01,2013-02-26 11:36:00,
2013-02-26 06:41:00,24.8,21.8,30.27,NNW,338,2.2,2.5,88,0.00,,OVC,0.00,VWS V14.01,2013-02-26 11:41:00,
2013-02-26 06:46:00,24.8,21.8,30.27,NNW,338,0.9,1.6,88,0.00,,OVC,0.00,VWS V14.01,2013-02-26 11:46:00,
2013-02-26 06:51:00,24.8,21.8,30.30,NNW,338,0.0,0.0,88,0.00,,OVC,0.00,VWS V14.01,2013-02-26 11:51:00,
2013-02-26 06:56:00,25.0,21.7,30.30,NNW,338,0.0,0.0,87,0.00,,OVC,0.00,VWS V14.01,2013-02-26 11:56:00,
2013-02-26 07:00:00,25.0,21.7,30.30,NNW,338,0.0,0.0,87,0.00,,OVC,0.00,VWS V14.01,2013-02-26 12:00:00,
2013-02-26 07:01:00,25.2,21.8,30.30,NNW,338,2.5,2.5,87,0.00,,OVC,0.00,VWS V14.01,2013-02-26 12:01:00,
2013-02-26 07:06:00,25.3,22.0,30.30,NNW,338,0.0,1.1,87,0.00,,OVC,0.00,VWS V14.01,2013-02-26 12:06:00,
2013-02-26 07:11:00,25.5,22.2,30.30,NNW,338,0.0,0.0,87,0.00,,OVC,0.00,VWS V14.01,2013-02-26 12:11:00,
2013-02-26 07:16:00,25.9,22.5,30.30,NNW,338,0.0,0.0,87,0.00,,OVC,0.00,VWS V14.01,2013-02-26 12:16:00,
2013-02-26 07:21:00,26.1,22.5,30.33,NNW,338,0.0,0.0,86,0.00,,OVC,0.00,VWS V14.01,2013-02-26 12:21:00,
2013-02-26 07:26:00,26.4,22.8,30.33,NNW,338,0.0,0.0,86,0.00,,OVC,0.00,VWS V14.01,2013-02-26 12:26:00,
2013-02-26 07:30:00,26.6,23.0,30.33,NNW,338,0.0,0.0,86,0.00,,OVC,0.00,VWS V14.01,2013-02-26 12:30:00,
2013-02-26 07:31:00,26.6,23.0,30.33,NNW,338,1.1,1.6,86,0.00,,OVC,0.00,VWS V14.01,2013-02-26 12:31:00,
2013-02-26 07:36:00,27.0,23.1,30.33,NNW,338,2.0,2.5,85,0.00,,OVC,0.00,VWS V14.01,2013-02-26 12:36:00,
2013-02-26 07:41:00,27.1,23.2,30.33,NNW,338,1.3,1.6,85,0.00,,OVC,0.00,VWS V14.01,2013-02-26 12:41:00,
2013-02-26 07:46:00,27.9,24.0,30.33,NNW,338,0.0,0.0,85,0.00,,OVC,0.00,VWS V14.01,2013-02-26 12:46:00,
2013-02-26 07:51:00,28.4,24.5,30.33,NNW,338,1.3,2.0,85,0.00,,OVC,0.00,VWS V14.01,2013-02-26 12:51:00,
2013-02-26 07:56:00,28.8,24.5,30.33,NNW,338,1.1,2.5,84,0.00,,OVC,0.00,VWS V14.01,2013-02-26 12:56:00,
2013-02-26 08:00:00,28.9,24.7,30.33,NNW,338,1.3,1.3,84,0.00,,OVC,0.00,VWS V14.01,2013-02-26 13:00:00,
2013-02-26 08:01:00,29.5,25.0,30.33,NNW,338,0.9,0.9,83,0.00,,OVC,0.00,VWS V14.01,2013-02-26 13:01:00,
2013-02-26 08:06:00,30.2,25.7,30.33,NNW,338,0.0,0.0,83,0.00,,OVC,0.00,VWS V14.01,2013-02-26 13:06:00,
2013-02-26 08:11:00,30.6,25.4,30.33,NNW,338,1.3,2.0,81,0.00,,OVC,0.00,VWS V14.01,2013-02-26 13:11:00,
2013-02-26 08:16:00,31.3,25.8,30.33,NNW,338,0.0,1.6,80,0.00,,OVC,0.00,VWS V14.01,2013-02-26 13:16:00,
2013-02-26 08:21:00,32.9,27.1,30.33,NNW,338,0.0,0.0,79,0.00,,OVC,0.00,VWS V14.01,2013-02-26 13:21:00,
2013-02-26 08:26:00,33.1,27.0,30.33,NNW,338,2.0,2.5,78,0.00,,OVC,0.00,VWS V14.01,2013-02-26 13:26:00,
2013-02-26 08:30:00,33.1,26.7,30.33,NNW,338,1.3,2.2,77,0.00,,OVC,0.00,VWS V14.01,2013-02-26 13:30:00,
2013-02-26 08:31:00,33.6,26.6,30.33,NNW,338,0.0,0.0,75,0.00,,OVC,0.00,VWS V14.01,2013-02-26 13:31:00,
2013-02-26 08:36:00,34.9,27.1,30.33,NNW,338,0.0,0.0,73,0.00,,OVC,0.00,VWS V14.01,2013-02-26 13:36:00,
2013-02-26 08:41:00,35.6,27.1,30.33,NNW,338,0.0,0.0,71,0.00,,OVC,0.00,VWS V14.01,2013-02-26 13:41:00,
2013-02-26 08:46:00,35.4,24.5,30.33,NNW,338,2.0,2.7,64,0.00,,OVC,0.00,VWS V14.01,2013-02-26 13:46:00,
2013-02-26 08:51:00,35.4,21.3,30.33,NNW,338,2.7,2.7,56,0.00,,OVC,0.00,VWS V14.01,2013-02-26 13:51:00,
2013-02-26 08:56:00,37.4,24.4,30.33,NNW,338,0.9,1.1,59,0.00,,OVC,0.00,VWS V14.01,2013-02-26 13:56:00,
2013-02-26 09:00:00,38.1,25.9,30.33,NNW,338,1.1,1.1,61,0.00,,OVC,0.00,VWS V14.01,2013-02-26 14:00:00,
2013-02-26 09:01:00,40.1,26.1,30.33,NNW,338,2.7,2.7,57,0.00,,OVC,0.00,VWS V14.01,2013-02-26 14:01:00,
2013-02-26 09:06:00,42.4,24.6,30.33,NNW,338,2.5,2.7,49,0.00,,OVC,0.00,VWS V14.01,2013-02-26 14:06:00,
2013-02-26 09:11:00,44.8,23.1,30.33,NNW,338,2.7,2.7,42,0.00,,OVC,0.00,VWS V14.01,2013-02-26 14:11:00,
2013-02-26 09:16:00,47.3,24.8,30.33,NW,315,2.7,2.9,41,0.00,,OVC,0.00,VWS V14.01,2013-02-26 14:16:00,
2013-02-26 09:21:00,48.4,24.0,30.33,NW,315,2.2,2.7,38,0.00,,OVC,0.00,VWS V14.01,2013-02-26 14:21:00,
2013-02-26 09:26:00,51.1,25.7,30.33,NW,315,3.6,3.6,37,0.00,,OVC,0.00,VWS V14.01,2013-02-26 14:26:00,
2013-02-26 09:30:00,51.1,25.7,30.33,NW,315,3.4,3.6,37,0.00,,OVC,0.00,VWS V14.01,2013-02-26 14:30:00,
2013-02-26 09:31:00,50.0,19.8,30.33,NNW,338,4.9,4.9,30,0.00,,OVC,0.00,VWS V14.01,2013-02-26 14:31:00,
2013-02-26 09:36:00,49.5,19.3,30.33,WNW,292,3.4,3.4,30,0.00,,OVC,0.00,VWS V14.01,2013-02-26 14:36:00,
2013-02-26 09:41:00,52.7,23.7,30.33,North,0,1.1,2.5,32,0.00,,OVC,0.00,VWS V14.01,2013-02-26 14:41:00,
2013-02-26 09:46:00,54.3,22.8,30.33,WNW,292,2.9,2.9,29,0.00,,OVC,0.00,VWS V14.01,2013-02-26 14:46:00,
2013-02-26 09:51:00,55.6,23.9,30.33,SSE,158,0.0,1.3,29,0.00,,OVC,0.00,VWS V14.01,2013-02-26 14:51:00,
2013-02-26 09:56:00,56.1,23.5,30.33,SW,225,2.7,3.1,28,0.00,,OVC,0.00,VWS V14.01,2013-02-26 14:56:00,
2013-02-26 10:00:00,56.1,23.5,30.33,SW,225,2.5,3.1,28,0.00,,OVC,0.00,VWS V14.01,2013-02-26 15:00:00,
2013-02-26 10:01:00,56.5,22.9,30.33,SSW,202,2.7,3.6,27,0.00,,OVC,0.00,VWS V14.01,2013-02-26 15:01:00,
2013-02-26 10:06:00,57.9,23.3,30.33,South,180,1.3,2.2,26,0.00,,OVC,0.00,VWS V14.01,2013-02-26 15:06:00,
2013-02-26 10:11:00,57.9,23.3,30.33,SSW,202,2.7,3.4,26,0.00,,OVC,0.00,VWS V14.01,2013-02-26 15:11:00,
2013-02-26 10:16:00,58.5,23.7,30.33,SSE,158,2.5,3.4,26,0.00,,OVC,0.00,VWS V14.01,2013-02-26 15:16:00,
2013-02-26 10:21:00,57.9,23.3,30.33,South,180,2.5,3.4,26,0.00,,OVC,0.00,VWS V14.01,2013-02-26 15:21:00,
2013-02-26 10:26:00,57.4,21.9,30.33,South,180,2.7,3.4,25,0.00,,OVC,0.00,VWS V14.01,2013-02-26 15:26:00,
2013-02-26 10:30:00,57.4,21.9,30.33,South,180,3.6,3.6,25,0.00,,OVC,0.00,VWS V14.01,2013-02-26 15:30:00,
2013-02-26 10:31:00,57.4,22.8,30.33,SSE,158,4.0,4.0,26,0.00,,OVC,0.00,VWS V14.01,2013-02-26 15:31:00,
2013-02-26 10:36:00,56.7,22.2,30.33,SSW,202,2.7,3.6,26,0.00,,OVC,0.00,VWS V14.01,2013-02-26 15:36:00,
2013-02-26 10:41:00,56.7,22.2,30.33,South,180,3.4,3.4,26,0.00,,OVC,0.00,VWS V14.01,2013-02-26 15:41:00,
2013-02-26 10:46:00,57.2,21.7,30.33,SSW,202,3.1,4.0,25,0.00,,OVC,0.00,VWS V14.01,2013-02-26 15:46:00,
2013-02-26 10:51:00,56.7,21.3,30.33,SSW,202,2.9,4.0,25,0.00,,OVC,0.00,VWS V14.01,2013-02-26 15:51:00,
2013-02-26 10:56:00,55.9,20.6,30.33,SSW,202,2.7,3.6,25,0.00,,OVC,0.00,VWS V14.01,2013-02-26 15:56:00,
2013-02-26 11:00:00,55.9,20.6,30.33,SSW,202,2.7,3.6,25,0.00,,OVC,0.00,VWS V14.01,2013-02-26 16:00:00,
2013-02-26 11:01:00,56.5,21.1,30.33,SW,225,5.6,5.6,25,0.00,,OVC,0.00,VWS V14.01,2013-02-26 16:01:00,
2013-02-26 11:06:00,55.4,20.2,30.33,SW,225,3.8,5.8,25,0.00,,OVC,0.00,VWS V14.01,2013-02-26 16:06:00,
2013-02-26 11:11:00,51.4,18.6,30.33,SSE,158,3.6,3.6,27,0.00,,OVC,0.00,VWS V14.01,2013-02-26 16:11:00,
2013-02-26 11:16:00,49.8,17.2,30.33,SSE,158,3.1,3.8,27,0.00,,OVC,0.00,VWS V14.01,2013-02-26 16:16:00,
2013-02-26 11:21:00,49.3,16.7,30.33,SSW,202,1.6,3.8,27,0.00,,OVC,0.00,VWS V14.01,2013-02-26 16:21:00,
2013-02-26 11:26:00,48.0,16.5,30.33,SSW,202,2.9,3.1,28,0.00,,OVC,0.00,VWS V14.01,2013-02-26 16:26:00,
2013-02-26 11:30:00,48.0,16.5,30.33,SSW,202,2.9,3.1,28,0.00,,OVC,0.00,VWS V14.01,2013-02-26 16:30:00,
2013-02-26 11:31:00,46.4,15.9,30.33,SSE,158,2.9,4.7,29,0.00,,OVC,0.00,VWS V14.01,2013-02-26 16:31:00,
2013-02-26 11:37:00,45.5,15.9,30.33,SSE,158,3.4,4.0,30,0.00,,OVC,0.00,VWS V14.01,2013-02-26 16:37:00,
2013-02-26 11:42:00,45.1,15.6,30.33,South,180,2.5,3.4,30,0.00,,OVC,0.00,VWS V14.01,2013-02-26 16:42:00,
2013-02-26 11:47:00,44.8,15.3,30.33,South,180,2.5,2.7,30,0.00,,OVC,0.00,VWS V14.01,2013-02-26 16:47:00,
2013-02-26 11:52:00,45.3,16.5,30.33,South,180,1.1,1.6,31,0.00,,OVC,0.00,VWS V14.01,2013-02-26 16:52:00,
2013-02-26 11:57:00,45.3,16.5,30.33,South,180,1.3,2.7,31,0.00,,OVC,0.00,VWS V14.01,2013-02-26 16:57:00,
2013-02-26 12:00:00,45.3,16.5,30.33,South,180,1.3,2.7,31,0.00,,OVC,0.00,VWS V14.01,2013-02-26 17:00:00,
2013-02-26 12:02:00,45.7,17.5,30.33,South,180,0.9,1.6,32,0.00,,OVC,0.00,VWS V14.01,2013-02-26 17:02:00,
2013-02-26 12:07:00,46.2,18.0,30.33,South,180,2.0,2.2,32,0.00,,OVC,0.00,VWS V14.01,2013-02-26 17:07:00,
2013-02-26 12:12:00,46.2,18.0,30.33,South,180,1.3,1.6,32,0.00,,OVC,0.00,VWS V14.01,2013-02-26 17:12:00,
2013-02-26 12:17:00,46.8,17.7,30.33,South,180,2.7,2.7,31,0.00,,OVC,0.00,VWS V14.01,2013-02-26 17:17:00,
2013-02-26 12:22:00,46.9,17.9,30.33,SSW,202,0.0,2.2,31,0.00,,OVC,0.00,VWS V14.01,2013-02-26 17:22:00,
2013-02-26 12:27:00,47.7,18.5,30.33,SSW,202,0.0,0.0,31,0.00,,OVC,0.00,VWS V14.01,2013-02-26 17:27:00,
2013-02-26 12:30:00,47.7,18.5,30.33,SSW,202,0.0,0.0,31,0.00,,OVC,0.00,VWS V14.01,2013-02-26 17:30:00,
2013-02-26 12:32:00,48.4,19.2,30.30,SSE,158,1.6,1.6,31,0.00,,OVC,0.00,VWS V14.01,2013-02-26 17:32:00,
2013-02-26 12:37:00,48.0,18.1,30.30,ENE,68,0.0,1.1,30,0.00,,OVC,0.00,VWS V14.01,2013-02-26 17:37:00,
2013-02-26 12:42:00,47.7,17.8,30.30,SSW,202,1.6,2.9,30,0.00,,OVC,0.00,VWS V14.01,2013-02-26 17:42:00,
2013-02-26 12:47:00,49.1,19.0,30.30,South,180,1.6,1.6,30,0.00,,OVC,0.00,VWS V14.01,2013-02-26 17:47:00,
2013-02-26 12:52:00,49.1,19.0,30.30,East,90,1.1,2.9,30,0.00,,OVC,0.00,VWS V14.01,2013-02-26 17:52:00,
2013-02-26 12:57:00,49.5,18.5,30.30,SW,225,3.4,4.3,29,0.00,,OVC,0.00,VWS V14.01,2013-02-26 17:57:00,
2013-02-26 13:00:00,49.5,18.5,30.30,SW,225,4.3,4.3,29,0.00,,OVC,0.00,VWS V14.01,2013-02-26 18:00:00,
2013-02-26 13:02:00,48.0,17.3,30.30,SSW,202,2.5,3.1,29,0.00,,OVC,0.00,VWS V14.01,2013-02-26 18:02:00,
2013-02-26 13:07:00,47.1,16.5,30.30,SSW,202,2.0,2.9,29,0.00,,OVC,0.00,VWS V14.01,2013-02-26 18:07:00,
2013-02-26 13:12:00,46.2,16.5,30.30,SSW,202,1.1,2.2,30,0.00,,OVC,0.00,VWS V14.01,2013-02-26 18:12:00,
2013-02-26 13:17:00,46.6,16.8,30.30,SSW,202,3.6,3.8,30,0.00,,OVC,0.00,VWS V14.01,2013-02-26 18:17:00,
2013-02-26 13:22:00,47.5,17.6,30.27,SSW,202,3.4,3.4,30,0.00,,OVC,0.00,VWS V14.01,2013-02-26 18:22:00,
2013-02-26 13:27:00,49.5,18.5,30.27,SSW,202,2.2,2.7,29,0.00,,OVC,0.00,VWS V14.01,2013-02-26 18:27:00,
2013-02-26 13:30:00,49.5,18.5,30.27,SSW,202,1.6,2.7,29,0.00,,OVC,0.00,VWS V14.01,2013-02-26 18:30:00,
2013-02-26 13:32:00,48.6,17.8,30.27,SSW,202,2.5,2.5,29,0.00,,OVC,0.00,VWS V14.01,2013-02-26 18:32:00,
2013-02-26 13:37:00,47.7,17.0,30.27,SSW,202,1.6,2.9,29,0.00,,OVC,0.00,VWS V14.01,2013-02-26 18:37:00,
2013-02-26 13:42:00,47.3,16.7,30.27,SSW,202,1.6,2.0,29,0.00,,OVC,0.00,VWS V14.01,2013-02-26 18:42:00,
2013-02-26 13:47:00,46.0,16.4,30.27,SW,225,2.5,2.7,30,0.00,,OVC,0.00,VWS V14.01,2013-02-26 18:47:00,
2013-02-26 13:52:00,46.2,16.5,30.27,WNW,292,1.3,2.5,30,0.00,,OVC,0.00,VWS V14.01,2013-02-26 18:52:00,
2013-02-26 13:57:00,45.9,16.2,30.27,WNW,292,2.0,2.5,30,0.00,,OVC,0.00,VWS V14.01,2013-02-26 18:57:00,
2013-02-26 14:00:00,45.9,16.2,30.27,WNW,292,1.3,2.5,30,0.00,,OVC,0.00,VWS V14.01,2013-02-26 19:00:00,
2013-02-26 14:02:00,45.7,16.0,30.27,WNW,292,3.6,3.6,30,0.00,,OVC,0.00,VWS V14.01,2013-02-26 19:02:00,
2013-02-26 14:07:00,44.6,15.1,30.24,NNW,338,2.7,3.8,30,0.00,,OVC,0.00,VWS V14.01,2013-02-26 19:07:00,
2013-02-26 14:12:00,44.2,15.5,30.24,WNW,292,5.4,5.4,31,0.00,,OVC,0.00,VWS V14.01,2013-02-26 19:12:00,
2013-02-26 14:17:00,44.1,15.4,30.27,NNW,338,3.1,4.0,31,0.00,,OVC,0.00,VWS V14.01,2013-02-26 19:17:00,
2013-02-26 14:22:00,45.5,16.6,30.27,SSW,202,2.2,2.5,31,0.00,,OVC,0.00,VWS V14.01,2013-02-26 19:22:00,
2013-02-26 14:27:00,46.2,17.3,30.27,SSE,158,2.0,2.0,31,0.00,,OVC,0.00,VWS V14.01,2013-02-26 19:27:00,
2013-02-26 14:30:00,46.2,17.3,30.27,SSE,158,1.6,2.2,31,0.00,,OVC,0.00,VWS V14.01,2013-02-26 19:30:00,
2013-02-26 14:32:00,46.6,17.6,30.27,SSE,158,3.1,3.8,31,0.00,,OVC,0.00,VWS V14.01,2013-02-26 19:32:00,
2013-02-26 14:37:00,46.2,17.3,30.27,South,180,1.6,2.5,31,0.00,,OVC,0.00,VWS V14.01,2013-02-26 19:37:00,
2013-02-26 14:42:00,46.2,18.0,30.27,SSE,158,1.3,1.6,32,0.00,,OVC,0.00,VWS V14.01,2013-02-26 19:42:00,
2013-02-26 14:47:00,45.5,16.6,30.27,SW,225,2.5,3.1,31,0.00,,OVC,0.00,VWS V14.01,2013-02-26 19:47:00,
2013-02-26 14:52:00,45.1,16.3,30.27,SW,225,3.6,3.6,31,0.00,,OVC,0.00,VWS V14.01,2013-02-26 19:52:00,
2013-02-26 14:57:00,44.2,15.5,30.27,SW,225,1.6,3.4,31,0.00,,OVC,0.00,VWS V14.01,2013-02-26 19:57:00,
2013-02-26 15:00:00,44.6,15.9,30.27,WSW,248,3.1,3.4,31,0.00,,OVC,0.00,VWS V14.01,2013-02-26 20:00:00,
2013-02-26 15:02:00,44.2,16.3,30.30,SSE,158,1.1,2.2,32,0.00,,OVC,0.00,VWS V14.01,2013-02-26 20:02:00,
2013-02-26 15:07:00,43.7,15.8,30.30,SSW,202,2.2,2.9,32,0.00,,OVC,0.00,VWS V14.01,2013-02-26 20:07:00,
2013-02-26 15:12:00,43.3,15.5,30.30,SSW,202,2.5,2.5,32,0.00,,OVC,0.00,VWS V14.01,2013-02-26 20:12:00,
2013-02-26 15:17:00,43.0,15.2,30.30,SSW,202,1.3,3.8,32,0.00,,OVC,0.00,VWS V14.01,2013-02-26 20:17:00,
2013-02-26 15:22:00,42.4,15.4,30.30,SW,225,2.7,2.7,33,0.00,,OVC,0.00,VWS V14.01,2013-02-26 20:22:00,
2013-02-26 15:27:00,42.4,16.1,30.30,SW,225,0.0,0.0,34,0.00,,OVC,0.00,VWS V14.01,2013-02-26 20:27:00,
2013-02-26 15:30:00,42.4,16.1,30.30,SW,225,0.0,1.1,34,0.00,,OVC,0.00,VWS V14.01,2013-02-26 20:30:00,
2013-02-26 15:32:00,42.3,15.9,30.27,SSW,202,1.3,2.0,34,0.00,,OVC,0.00,VWS V14.01,2013-02-26 20:32:00,
2013-02-26 15:37:00,42.3,15.9,30.27,SSW,202,1.1,1.3,34,0.00,,OVC,0.00,VWS V14.01,2013-02-26 20:37:00,
2013-02-26 15:42:00,42.1,15.8,30.27,SSW,202,0.0,1.3,34,0.00,,OVC,0.00,VWS V14.01,2013-02-26 20:42:00,
2013-02-26 15:47:00,41.9,16.3,30.27,SSW,202,1.3,1.6,35,0.00,,OVC,0.00,VWS V14.01,2013-02-26 20:47:00,
2013-02-26 15:53:00,41.5,16.6,30.27,SSW,202,0.0,0.0,36,0.00,,OVC,0.00,VWS V14.01,2013-02-26 20:53:00,
2013-02-26 15:58:00,41.2,16.3,30.27,SSW,202,0.0,0.0,36,0.00,,OVC,0.00,VWS V14.01,2013-02-26 20:58:00,
2013-02-26 16:00:00,41.2,16.3,30.27,SSW,202,0.0,0.0,36,0.00,,OVC,0.00,VWS V14.01,2013-02-26 21:00:00,
2013-02-26 16:03:00,40.8,17.8,30.27,SSW,202,0.0,0.0,39,0.00,,OVC,0.00,VWS V14.01,2013-02-26 21:03:00,
2013-02-26 16:08:00,40.8,17.8,30.27,SSW,202,0.0,0.0,39,0.00,,OVC,0.00,VWS V14.01,2013-02-26 21:08:00,
2013-02-26 16:13:00,40.5,17.5,30.27,SSW,202,0.0,1.3,39,0.00,,OVC,0.00,VWS V14.01,2013-02-26 21:13:00,
2013-02-26 16:18:00,40.3,17.3,30.27,SSW,202,0.0,0.0,39,0.00,,OVC,0.00,VWS V14.01,2013-02-26 21:18:00,
2013-02-26 16:23:00,40.1,17.1,30.27,SSW,202,0.0,0.0,39,0.00,,OVC,0.00,VWS V14.01,2013-02-26 21:23:00,
2013-02-26 16:28:00,39.7,17.4,30.27,SSW,202,0.0,0.0,40,0.00,,OVC,0.00,VWS V14.01,2013-02-26 21:28:00,
2013-02-26 16:30:00,39.9,17.6,30.27,SSW,202,0.0,0.0,40,0.00,,OVC,0.00,VWS V14.01,2013-02-26 21:30:00,
2013-02-26 16:33:00,39.6,17.2,30.27,SSW,202,0.0,0.0,40,0.00,,OVC,0.00,VWS V14.01,2013-02-26 21:33:00,
2013-02-26 16:38:00,39.4,17.1,30.27,SSW,202,0.0,0.0,40,0.00,,OVC,0.00,VWS V14.01,2013-02-26 21:38:00,
2013-02-26 16:43:00,39.0,17.3,30.27,SSW,202,0.0,0.0,41,0.00,,OVC,0.00,VWS V14.01,2013-02-26 21:43:00,
2013-02-26 16:48:00,38.5,17.4,30.27,SSW,202,0.0,0.0,42,0.00,,OVC,0.00,VWS V14.01,2013-02-26 21:48:00,
2013-02-26 16:53:00,38.1,17.6,30.27,SSW,202,0.0,0.0,43,0.00,,OVC,0.00,VWS V14.01,2013-02-26 21:53:00,
2013-02-26 16:58:00,37.8,16.8,30.27,SSW,202,0.0,0.0,42,0.00,,OVC,0.00,VWS V14.01,2013-02-26 21:58:00,
2013-02-26 17:00:00,37.9,17.5,30.27,SSW,202,0.0,0.0,43,0.00,,OVC,0.00,VWS V14.01,2013-02-26 22:00:00,
2013-02-26 17:03:00,37.0,18.2,30.30,SSW,202,0.0,0.0,46,0.00,,OVC,0.00,VWS V14.01,2013-02-26 22:03:00,
2013-02-26 17:08:00,36.7,16.8,30.30,SSW,202,1.1,1.6,44,0.00,,OVC,0.00,VWS V14.01,2013-02-26 22:08:00,
2013-02-26 17:13:00,36.1,17.9,30.30,SSW,202,0.0,0.0,47,0.00,,OVC,0.00,VWS V14.01,2013-02-26 22:13:00,
2013-02-26 17:18:00,35.6,17.9,30.27,SSW,202,1.1,1.1,48,0.00,,OVC,0.00,VWS V14.01,2013-02-26 22:18:00,
2013-02-26 17:23:00,35.1,17.4,30.27,SSW,202,0.0,0.0,48,0.00,,OVC,0.00,VWS V14.01,2013-02-26 22:23:00,
2013-02-26 17:28:00,34.7,17.5,30.27,SSW,202,0.0,0.0,49,0.00,,OVC,0.00,VWS V14.01,2013-02-26 22:28:00,
2013-02-26 17:30:00,35.1,17.8,30.27,SSW,202,0.0,0.0,49,0.00,,OVC,0.00,VWS V14.01,2013-02-26 22:30:00,
2013-02-26 17:33:00,34.2,17.5,30.30,SSW,202,0.0,0.0,50,0.00,,OVC,0.00,VWS V14.01,2013-02-26 22:33:00,
2013-02-26 17:38:00,33.6,17.4,30.30,SSW,202,0.0,0.0,51,0.00,,OVC,0.00,VWS V14.01,2013-02-26 22:38:00,
2013-02-26 17:43:00,33.3,17.5,30.30,SSW,202,0.0,0.0,52,0.00,,OVC,0.00,VWS V14.01,2013-02-26 22:43:00,
2013-02-26 17:48:00,33.1,17.8,30.27,SSW,202,0.0,0.0,53,0.00,,OVC,0.00,VWS V14.01,2013-02-26 22:48:00,
2013-02-26 17:53:00,32.5,17.8,30.27,SSW,202,0.0,0.0,54,0.00,,OVC,0.00,VWS V14.01,2013-02-26 22:53:00,
2013-02-26 17:58:00,32.2,17.0,30.27,SSW,202,0.0,0.0,53,0.00,,OVC,0.00,VWS V14.01,2013-02-26 22:58:00,
2013-02-26 18:00:00,32.4,17.6,30.27,SSW,202,0.0,0.0,54,0.00,,OVC,0.00,VWS V14.01,2013-02-26 23:00:00,
2013-02-26 18:03:00,32.2,17.0,30.27,SSW,202,0.0,0.0,53,0.00,,OVC,0.00,VWS V14.01,2013-02-26 23:03:00,
2013-02-26 18:08:00,31.6,17.3,30.27,SSW,202,0.0,0.0,55,0.00,,OVC,0.00,VWS V14.01,2013-02-26 23:08:00,
2013-02-26 18:13:00,31.3,16.6,30.27,SSW,202,0.0,0.0,54,0.00,,OVC,0.00,VWS V14.01,2013-02-26 23:13:00,
2013-02-26 18:18:00,31.1,17.2,30.27,SSW,202,0.0,0.0,56,0.00,,OVC,0.00,VWS V14.01,2013-02-26 23:18:00,
2013-02-26 18:23:00,30.9,17.1,30.27,SSW,202,0.0,0.0,56,0.00,,OVC,0.00,VWS V14.01,2013-02-26 23:23:00,
2013-02-26 18:28:00,30.7,17.3,30.27,SSW,202,0.0,0.0,57,0.00,,OVC,0.00,VWS V14.01,2013-02-26 23:28:00,
2013-02-26 18:30:00,30.7,17.3,30.27,SSW,202,0.0,0.0,57,0.00,,OVC,0.00,VWS V14.01,2013-02-26 23:30:00,
2013-02-26 18:33:00,30.4,17.0,30.27,SSW,202,0.0,0.0,57,0.00,,OVC,0.00,VWS V14.01,2013-02-26 23:33:00,
2013-02-26 18:38:00,30.2,17.2,30.27,SSW,202,0.0,0.0,58,0.00,,OVC,0.00,VWS V14.01,2013-02-26 23:38:00,
2013-02-26 18:43:00,29.8,17.3,30.27,SSW,202,0.0,0.0,59,0.00,,OVC,0.00,VWS V14.01,2013-02-26 23:43:00,
2013-02-26 18:48:00,29.7,17.1,30.24,SSW,202,0.0,0.0,59,0.00,,OVC,0.00,VWS V14.01,2013-02-26 23:48:00,
2013-02-26 18:53:00,29.5,16.9,30.24,SSW,202,0.0,0.0,59,0.00,,OVC,0.00,VWS V14.01,2013-02-26 23:53:00,
2013-02-26 18:58:00,29.3,16.8,30.24,SSW,202,0.0,0.0,59,0.00,,OVC,0.00,VWS V14.01,2013-02-26 23:58:00,
2013-02-26 19:00:00,29.5,16.9,30.24,SSW,202,0.0,0.0,59,0.00,,OVC,0.00,VWS V14.01,2013-02-27 00:00:00,
2013-02-26 19:03:00,29.1,17.0,30.27,SSW,202,0.0,0.0,60,0.00,,OVC,0.00,VWS V14.01,2013-02-27 00:03:00,
2013-02-26 19:08:00,28.8,16.6,30.27,SSW,202,0.0,0.0,60,0.00,,OVC,0.00,VWS V14.01,2013-02-27 00:08:00,
2013-02-26 19:13:00,28.6,16.9,30.27,SSW,202,0.0,0.0,61,0.00,,OVC,0.00,VWS V14.01,2013-02-27 00:13:00,
2013-02-26 19:18:00,28.2,16.9,30.27,SSW,202,0.0,0.0,62,0.00,,OVC,0.00,VWS V14.01,2013-02-27 00:18:00,
2013-02-26 19:23:00,28.0,16.0,30.27,SSW,202,0.0,0.0,60,0.00,,OVC,0.00,VWS V14.01,2013-02-27 00:23:00,
2013-02-26 19:28:00,27.7,16.0,30.27,SSW,202,0.0,0.0,61,0.00,,OVC,0.00,VWS V14.01,2013-02-27 00:28:00,
2013-02-26 19:30:00,28.0,16.0,30.27,SSW,202,0.0,0.0,60,0.00,,OVC,0.00,VWS V14.01,2013-02-27 00:30:00,
2013-02-26 19:33:00,27.1,15.9,30.27,SSW,202,0.0,0.0,62,0.00,,OVC,0.00,VWS V14.01,2013-02-27 00:33:00,
2013-02-26 19:38:00,27.0,16.4,30.27,SSW,202,0.0,0.0,64,0.00,,OVC,0.00,VWS V14.01,2013-02-27 00:38:00,
2013-02-26 19:44:00,27.0,15.7,30.27,SSW,202,0.0,0.0,62,0.00,,OVC,0.00,VWS V14.01,2013-02-27 00:44:00,
2013-02-26 19:49:00,26.6,15.7,30.27,SSW,202,0.0,0.0,63,0.00,,OVC,0.00,VWS V14.01,2013-02-27 00:49:00,
2013-02-26 19:54:00,26.2,15.4,30.27,SSW,202,0.0,0.0,63,0.00,,OVC,0.00,VWS V14.01,2013-02-27 00:54:00,
2013-02-26 19:59:00,25.9,15.8,30.27,SSW,202,0.0,0.0,65,0.00,,OVC,0.00,VWS V14.01,2013-02-27 00:59:00,
2013-02-26 20:00:00,26.2,15.4,30.27,SSW,202,0.0,0.0,63,0.00,,OVC,0.00,VWS V14.01,2013-02-27 01:00:00,
2013-02-26 20:04:00,25.9,16.1,30.30,SSW,202,0.0,0.0,66,0.00,,OVC,0.00,VWS V14.01,2013-02-27 01:04:00,
2013-02-26 20:09:00,25.5,16.1,30.30,SSW,202,0.0,0.0,67,0.00,,OVC,0.00,VWS V14.01,2013-02-27 01:09:00,
2013-02-26 20:14:00,25.3,16.3,30.30,SSW,202,0.0,0.0,68,0.00,,OVC,0.00,VWS V14.01,2013-02-27 01:14:00,
2013-02-26 20:19:00,25.2,16.4,30.30,SSW,202,0.0,0.0,69,0.00,,OVC,0.00,VWS V14.01,2013-02-27 01:19:00,
2013-02-26 20:24:00,25.2,16.4,30.30,SSW,202,0.0,0.0,69,0.00,,OVC,0.00,VWS V14.01,2013-02-27 01:24:00,
2013-02-26 20:29:00,25.2,16.4,30.30,SSW,202,0.0,0.0,69,0.00,,OVC,0.00,VWS V14.01,2013-02-27 01:29:00,
2013-02-26 20:30:00,25.2,16.4,30.30,SSW,202,0.0,0.0,69,0.00,,OVC,0.00,VWS V14.01,2013-02-27 01:30:00,
2013-02-26 20:34:00,25.2,16.4,30.27,SSW,202,0.0,0.0,69,0.00,,OVC,0.00,VWS V14.01,2013-02-27 01:34:00,
2013-02-26 20:39:00,25.2,16.4,30.27,SSW,202,0.0,0.0,69,0.00,,OVC,0.00,VWS V14.01,2013-02-27 01:39:00,
2013-02-26 20:44:00,25.2,16.4,30.27,SSW,202,0.0,0.0,69,0.00,,OVC,0.00,VWS V14.01,2013-02-27 01:44:00,
2013-02-26 20:49:00,24.3,16.5,30.27,SSW,202,0.0,0.0,72,0.00,,OVC,0.00,VWS V14.01,2013-02-27 01:49:00,
2013-02-26 20:54:00,24.3,16.9,30.27,SSW,202,0.0,0.0,73,0.00,,OVC,0.00,VWS V14.01,2013-02-27 01:54:00,
2013-02-26 20:59:00,24.3,16.9,30.27,SSW,202,0.0,0.0,73,0.00,,OVC,0.00,VWS V14.01,2013-02-27 01:59:00,
2013-02-26 21:00:00,24.3,16.9,30.27,SSW,202,0.0,0.0,73,0.00,,OVC,0.00,VWS V14.01,2013-02-27 02:00:00,
2013-02-26 21:04:00,24.3,16.9,30.27,SSW,202,0.0,0.0,73,0.00,,OVC,0.00,VWS V14.01,2013-02-27 02:04:00,
2013-02-26 21:09:00,23.7,16.4,30.27,SSW,202,0.0,0.0,73,0.00,,OVC,0.00,VWS V14.01,2013-02-27 02:09:00,
2013-02-26 21:14:00,23.7,16.4,30.27,SSW,202,0.0,0.0,73,0.00,,OVC,0.00,VWS V14.01,2013-02-27 02:14:00,
2013-02-26 21:19:00,23.7,16.4,30.27,SSW,202,0.0,0.0,73,0.00,,OVC,0.00,VWS V14.01,2013-02-27 02:19:00,
2013-02-26 21:24:00,23.7,16.4,30.27,SSW,202,0.0,0.0,73,0.00,,OVC,0.00,VWS V14.01,2013-02-27 02:24:00,
2013-02-26 21:29:00,23.7,16.4,30.27,SSW,202,2.0,2.0,73,0.00,,OVC,0.00,VWS V14.01,2013-02-27 02:29:00,
2013-02-26 21:30:00,23.7,16.4,30.27,SSW,202,0.0,0.0,73,0.00,,OVC,0.00,VWS V14.01,2013-02-27 02:30:00,
2013-02-26 21:34:00,23.7,16.4,30.30,SSW,202,0.0,1.3,73,0.00,,OVC,0.00,VWS V14.01,2013-02-27 02:34:00,
2013-02-26 21:39:00,23.7,16.4,30.30,SSW,202,0.0,0.0,73,0.00,,OVC,0.00,VWS V14.01,2013-02-27 02:39:00,
2013-02-26 21:44:00,23.7,16.4,30.30,SSW,202,0.0,0.0,73,0.00,,OVC,0.00,VWS V14.01,2013-02-27 02:44:00,
2013-02-26 21:49:00,23.4,17.2,30.30,SSW,202,0.0,0.0,77,0.00,,OVC,0.00,VWS V14.01,2013-02-27 02:49:00,
2013-02-26 21:54:00,23.4,17.2,30.30,SSW,202,1.3,1.6,77,0.00,,OVC,0.00,VWS V14.01,2013-02-27 02:54:00,
2013-02-26 21:59:00,23.4,17.2,30.30,SSW,202,0.9,1.6,77,0.00,,OVC,0.00,VWS V14.01,2013-02-27 02:59:00,
2013-02-26 22:00:00,23.4,17.2,30.30,SSW,202,0.9,1.3,77,0.00,,OVC,0.00,VWS V14.01,2013-02-27 03:00:00,
2013-02-26 22:04:00,23.0,16.6,30.27,SSW,202,0.0,0.0,76,0.00,,OVC,0.00,VWS V14.01,2013-02-27 03:04:00,
2013-02-26 22:09:00,23.0,16.6,30.27,SSW,202,2.0,2.2,76,0.00,,OVC,0.00,VWS V14.01,2013-02-27 03:09:00,
2013-02-26 22:14:00,23.0,16.6,30.27,WSW,248,1.3,2.2,76,0.00,,OVC,0.00,VWS V14.01,2013-02-27 03:14:00,
2013-02-26 22:19:00,23.0,16.6,30.27,West,270,2.0,2.5,76,0.00,,OVC,0.00,VWS V14.01,2013-02-27 03:19:00,
2013-02-26 22:25:00,23.0,16.6,30.27,WNW,292,2.0,2.0,76,0.00,,OVC,0.00,VWS V14.01,2013-02-27 03:25:00,
2013-02-26 22:30:00,22.6,17.7,30.27,WNW,292,1.3,2.0,81,0.00,,OVC,0.00,VWS V14.01,2013-02-27 03:30:00,
2013-02-26 22:35:00,22.6,17.7,30.27,WNW,292,0.0,1.3,81,0.00,,OVC,0.00,VWS V14.01,2013-02-27 03:35:00,
2013-02-26 22:40:00,22.1,17.2,30.27,WNW,292,0.0,0.0,81,0.00,,OVC,0.00,VWS V14.01,2013-02-27 03:40:00,
2013-02-26 22:45:00,22.5,17.8,30.27,WNW,292,0.0,0.0,82,0.00,,OVC,0.00,VWS V14.01,2013-02-27 03:45:00,
2013-02-26 22:50:00,22.1,17.5,30.27,WNW,292,0.0,0.0,82,0.00,,OVC,0.00,VWS V14.01,2013-02-27 03:50:00,
2013-02-26 22:55:00,21.9,17.0,30.27,WNW,292,2.0,2.0,81,0.00,,OVC,0.00,VWS V14.01,2013-02-27 03:55:00,
2013-02-26 23:00:00,21.2,16.0,30.27,NW,315,1.6,2.0,80,0.00,,OVC,0.00,VWS V14.01,2013-02-27 04:00:00,
2013-02-26 23:05:00,20.8,15.7,30.27,NW,315,2.2,2.5,80,0.00,,OVC,0.00,VWS V14.01,2013-02-27 04:05:00,
2013-02-26 23:10:00,20.8,15.7,30.27,NW,315,1.1,1.3,80,0.00,,OVC,0.00,VWS V14.01,2013-02-27 04:10:00,
2013-02-26 23:15:00,20.5,15.6,30.27,NW,315,0.0,0.0,81,0.00,,OVC,0.00,VWS V14.01,2013-02-27 04:15:00,
2013-02-26 23:20:00,20.3,15.1,30.24,NW,315,1.1,1.3,80,0.00,,OVC,0.00,VWS V14.01,2013-02-27 04:20:00,
2013-02-26 23:25:00,19.9,14.8,30.24,NW,315,0.0,0.0,80,0.00,,OVC,0.00,VWS V14.01,2013-02-27 04:25:00,
2013-02-26 23:30:00,19.8,14.6,30.24,NW,315,0.0,0.0,80,0.00,,OVC,0.00,VWS V14.01,2013-02-27 04:30:00,
2013-02-26 23:35:00,19.9,14.8,30.27,NW,315,0.9,1.1,80,0.00,,OVC,0.00,VWS V14.01,2013-02-27 04:35:00,
2013-02-26 23:40:00,19.9,14.8,30.27,NW,315,0.0,0.0,80,0.00,,OVC,0.00,VWS V14.01,2013-02-27 04:40:00,
2013-02-26 23:45:00,19.4,14.2,30.27,NW,315,0.0,0.0,80,0.00,,OVC,0.00,VWS V14.01,2013-02-27 04:45:00,
2013-02-26 23:50:00,19.2,14.1,30.27,NW,315,2.2,2.2,80,0.00,,OVC,0.00,VWS V14.01,2013-02-27 04:50:00,
2013-02-26 23:55:00,19.2,14.1,30.27,NW,315,1.6,2.5,80,0.00,,OVC,0.00,VWS V14.01,2013-02-27 04:55:00,